Location: Golden Pond Observatory
(36.7773°N, 88.0631°W)
Time: 22:40:16
(UTC-06:00)

Hubble Space Telescope - Pass Details

Date: 20 November 2019
Orbit: 536 x 540 km, 28.5° (Epoch: 14 December)

Event Time Altitude Azimuth Distance (km) Brightness Sun altitude
Rises 18:13:20 0° 237° (WSW) 2,666 5.6 -18.6°
Reaches altitude 10° 18:15:57 10° 222° (SW) 1,778 4.2 -19.1°
Maximum altitude 18:19:09 22° 171° (S) 1,200 2.5 -19.7°
Enters shadow 18:20:03 20° 152° (SSE) 1,257 2.4 -19.9°
